Tracking 23752 objects as of 23-Oct-2021
HD Live streaming from Space Station
objects crossing your sky now

STARLINK-1195

Track STARLINK-1195 now!
10-day predictions
STARLINK-1195 is classified as:


NORAD ID: 45102
Int'l Code: 2020-006BK
Perigee: 553.2 km
Apogee: 555.6 km
Inclination: 53.1 °
Period: 95.6 minutes
Semi major axis: 6925 km
RCS: Unknown
Launch date: January 29, 2020
Source: United States (US)
Launch site: AIR FORCE EASTERN TEST RANGE (AFETR)
aabbcc
Your satellite tracking list
Your tracking list is empty




NASA's NSSDC Master Catalog

Two Line Element Set (TLE):
1 45102U 20006BL  21295.50305918 -.00000033  00000-0  16708-4 0  9993
2 45102  53.0552 225.6561 0001736  70.2789 289.8387 15.06388819 95986
Source of the keplerian elements: AFSPC